World > North America > United States > Nebraska

Adams County, Nebraska Regional Weather

Lat: 40.52N, Lon: 98.49W
Wx Zone: NEZ075Web Search

Helpful Tip: Type the letters wx in the search engine next time you need to find us.

Feedback


°F Click to change Adams County hourly weather to Imperial units.Click to change Adams County hourly weather to Metric units. °C
Adams County Weather Map
UTC Time: 4/11/2021, 06:59
Your Time:

Adams County, NE Regional Weather

Expires:202104110700;;368464
ASUS43 KOAX 110610
RWRNE 

WEATHER ROUNDUP FOR NEBRASKA
NATIONAL WEATHER SERVICE OMAHA NE
100 AM CDT SUN APR 11 2021

NOTES: SATELLITE DATA IS BEING USED TO AUGMENT CLOUD COVER ABOVE
       12000 FEET.
       "FAIR" INDICATES FEW OR NO CLOUDS BELOW 12,000 FEET WITH NO
       SIGNIFICANT WEATHER AND/OR OBSTRUCTIONS TO VISIBILITY.

   

NEZ041-046>049-061>064-073>077-083>087-110700-
SOUTH CENTRAL NEBRASKA
  
CITY           SKY/WX    TMP DP  RH WIND       PRES   REMARKS
GRAND ISLAND   CLEAR     45  27  49 S7        29.65F                  
6HR MIN TEMP:  43; 6HR MAX TEMP:  60;                                

AURORA         CLEAR     41  30  65 SW5       29.66F                  
HASTINGS       CLEAR     45  27  49 S6        29.66F                  
6HR MIN TEMP:  42; 6HR MAX TEMP:  59;                                

HEBRON         CLEAR     37  33  85 CALM      29.67F                  
HOLDREGE       CLEAR     41  24  50 S3        29.66F                  
KEARNEY        CLEAR     40  27  59 S7        29.66F                  
YORK           CLEAR     41  30  65 CALM      29.66F                  
$$
 

SKY/WX - Weather  TMP - Temperature  DP - Dew Point  RH - Relative Humidity
WIND - Wind Direction/Speed PRES - Barometric Pressure VSB - Visibility
WCI - Wind Chill Index E13G22 Wind - East Wind 13 mph/Gusts of 22 mph